This is the latest recevied weather packets stored in our database for station/object WA6GRA. If no packets are shown the sender has not sent any weather packets the latest 10 day(s).
| Time | Temp. | Humidity | Pressure | Rain* | Wind** | Luminosity | Snow |
|---|---|---|---|---|---|---|---|
| 1777739275 | 20° C | 76% | 1012.3 hPa | 0 mm | - | 523 W/m² | - |
| 1777738675 | 20° C | 76% | 1012.4 hPa | 0 mm | - | 395 W/m² | - |
| 1777738069 | 19.44° C | 78% | 1012.5 hPa | 0 mm | - | 457 W/m² | - |
| 1777737466 | 19.44° C | 78% | 1012.5 hPa | 0 mm | - | 402 W/m² | - |
| 1777736865 | 18.89° C | 80% | 1012.5 hPa | 0 mm | - | 373 W/m² | - |
| 1777736252 | 18.33° C | 80% | 1012.1 hPa | 0 mm | - | 340 W/m² | - |
| 1777735646 | 17.78° C | 81% | 1012 hPa | 0 mm | - | 309 W/m² | - |
| 1777735047 | 17.22° C | 83% | 1012 hPa | 0 mm | - | 234 W/m² | - |
| 1777734441 | 17.22° C | 82% | 1011.9 hPa | 0 mm | - | 242 W/m² | - |
| 1777733840 | 16.67° C | 82% | 1012 hPa | 0 mm | - | 206 W/m² | - |
| 1777733239 | 16.67° C | 82% | 1011.9 hPa | 0 mm | - | 181 W/m² | - |
| 1777732638 | 16.67° C | 82% | 1011.8 hPa | 0 mm | - | 154 W/m² | - |
| 1777732033 | 16.67° C | 82% | 1011.7 hPa | 0 mm | - | 127 W/m² | - |
| 1777731432 | 16.11° C | 82% | 1011.2 hPa | 0 mm | - | 105 W/m² | - |
| 1777730227 | 16.11° C | 82% | 1011 hPa | 0 mm | - | 63 W/m² | - |
| 1777729626 | 15.56° C | 82% | 1011 hPa | 0 mm | - | 43 W/m² | - |
| 1777729025 | 15.56° C | 82% | 1010.9 hPa | 0 mm | - | 26 W/m² | - |
| 1777728424 | 15.56° C | 82% | 1010.6 hPa | 0 mm | - | 15 W/m² | - |
| 1777727824 | 16.11° C | 82% | 1010.8 hPa | 0 mm | - | 8 W/m² | - |
| 1777727224 | 16.11° C | 81% | 1010.5 hPa | 0 mm | - | 4 W/m² | - |
| 1777726624 | 16.67° C | 80% | 1010.1 hPa | 0 mm | - | 1 W/m² | - |
| 1777726018 | 16.11° C | 81% | 1010.3 hPa | 0 mm | - | 0 W/m² | - |
| 1777725413 | 15.56° C | 84% | 1010.3 hPa | 0 mm | - | 0 W/m² | - |
| 1777724812 | 15.56° C | 87% | 1010 hPa | 0 mm | - | 0 W/m² | - |
| 1777724208 | 15.56° C | 87% | 1010.1 hPa | 0 mm | - | 0 W/m² | - |
* Rain latest hour (hover to see other rain measurements)
** Current wind speed in m/s (hover to see current wind gust speed)